Location: Austin
(30.3000°N, 97.7500°W)
Time: 07:23:32
(UTC-05:00)

Cosmos 2082 Rocket - Pass Details

Date: 23 July 2024
Orbit: 833 x 852 km, 71.0° (Epoch: 12 May)

Event Time Altitude Azimuth Distance (km) Brightness Sun altitude
Rises 22:45:02 0° 349° (N) 3,381 6.2 -25.0°
Reaches altitude 10° 22:47:39 10° 357° (N) 2,444 5.2 -25.4°
Enters shadow 22:52:38 39° 60° (ENE) 1,229 2.9 -26.1°
